Aérodrome :
LOGIN :

S'inscrire | Disclaimer

   EN    FR    IT 

 










Légende :    VFR   VFR Marginal   IFR   IFR Intensif   IFR Très Intensif
Visi : 
Plafond : 
>= 8 km
>= 3000ft
5 à 8 km
1000 à 3000 ft
1500m à 5 km
500 à 1000 ft
800 à 1500m
200 à 500 ft
< 800m
< 200 ft
Symboles :   Orages  Brouillard  Fortes neiges  Fortes précipitations  Vent > 20 kt
SIGMETs :   Divers  Orages  Givrage  Turbulence  Onde Orograph.  Cendres Volcan.







- Altitude de l'aérodrome : 336 ft
- Code IATA : GCI
- Voir les cartes d'approche


EGJB - Guernsey

DERNIER METAR :
  • 270350Z 19008KT 9999 SCT014 15/14 Q1011

METARs EXPIRÉS :
  • 270320Z 20008KT 160V230 9999 -SHRA FEW014 FEW030CB 16/14 Q1011
  • 270250Z 18011KT 9999 FEW030CB 15/13 Q1011

TAF TAF EGJB
Valide du 27 à 03h jusqu'au 27 à 12h UTC


270200Z 2703/2712 17012KT 9999 FEW030CB
PROB30
TEMPO 2703/2705 5000 TSRA BKN030CB
BECMG 2703/2705 23015KT BKN010
PROB30
TEMPO 2705/2712 0300 FG BKN000
ATIS : +44 1481 238 957
Pas de NOTAMs connus pour ce terrain.



MET'MAP, la Météo Aéronautique d'un coup d'oeil ! - Copyright ORBIFLY Décembre 2007 - Disclaimer

ORBIFLY MET'MAP TEAM :

Programmation & Développement : Alexandra Zaïnal
Conception & Développement : Baudouin d'Aumeries
Co-Programmation & Développement : Marc-Olivier Méhu
Soutien technique & logistique : Manuel Goepfert

Contact : metmap@orbifly.com




SOURCES & CREDITS :

   NOAA